User: anonymous   Login
Location: Unspecified
(0.0000°N, 0.0000°E)
Time: 01:57:43
(UTC+02:00)
Language:

Iridium 33 - Orbit

View from above orbital plane
View from above orbital plane
View from above satellite
View from above satellite

Ground track
Ground track

The orbit data is extracted from the following two-line orbital elements,

1 24946U 97051C   15147.19030146  .00000145  00000-0  45498-4 0  9993
2 24946 086.3901 241.3992 0008633 158.4544 246.3199 14.33378878926312
Epoch (UTC): 27 May 2015 04:34:02
Eccentricity: 0.0008633
inclination: 86.3901°
perigee height: 774 km
apogee height: 786 km
right ascension of ascending node: 241.3992°
argument of perigee: 158.4544°
revolutions per day: 14.33378878
mean anomaly at epoch: 246.3199°
orbit number at epoch: 92631

The dashed part of the orbit path shows where the satellite is in the earth's shadow,  

DLR